Temperature
9 9 9 9 9 9 9 9 9 9 9 9 10 10 10 10 10 10 10 11 11 11 11 11 11 11 11 11 11 11 11 11 11 11 11 11 11 11 11 11 11 11 11
9 9 9 9 9 9 9 9 9 9 9 9 9 9 9 9 9 10 10 10 10 10 10 10 10 10 10 10 10 10 11 11 11 11 11 11 11 11 11 11 11 11 11
8 8 8 8 8 8 8 8 8 8 8 8 8 8 9 9 9 9 9 9 9 9 10 10 9 9 10 10 10 10 10 10 10 10 10 10 10 10 10 10 10 10 10
7 7 7 7 7 7 7 7 7 7 7 7 7 8 8 8 8 9 9 9 9 9 9 9 9 9 9 9 9 9 9 9 10 10 10 10 10 10 10 10 10 10 10
6 7 6 6 6 7 7 6 7 7 7 7 7 7 7 7 8 8 8 8 8 8 8 8 8 9 9 9 9 9 9 9 9 9 9 9 9 9 9 9 9 9 9
6 6 6 6 6 6 6 6 6 6 6 6 6 6 7 7 7 7 7 8 8 8 8 8 8 8 8 8 8 8 8 9 9 9 9 9 9 9 9 9 9 9 9
5 5 5 5 5 5 5 5 5 5 5 5 5 5 6 6 6 7 7 7 7 7 7 7 8 8 8 8 8 8 8 8 8 8 8 9 9 8 8 8 8 8 8
4 4 4 4 4 4 4 4 4 4 4 4 4 4 5 5 5 6 6 6 6 7 7 7 7 7 7 7 7 8 8 8 8 8 8 8 8 8 8 8 8 8 8
3 3 3 3 3 3 4 4 3 3 4 4 4 4 4 5 5 5 5 5 6 6 6 6 6 6 7 7 7 7 7 7 7 7 7 7 7 7 7 7 7 7 7
2 3 2 3 3 3 3 3 3 3 3 3 3 3 4 4 4 4 4 5 5 5 5 5 5 6 6 6 6 6 7 7 7 7 7 7 7 7 7 7 7 7 7
2 2 2 2 2 2 2 2 2 2 2 2 3 3 3 3 3 3 4 4 4 4 4 4 5 5 5 5 5 6 6 6 6 6 6 6 6 6 6 6 6 6 6
2 1 1 1 1 2 2 2 2 2 2 2 2 2 2 2 2 3 2 3 3 3 4 4 4 4 4 4 5 5 5 5 6 6 6 6 6 6 6 6 6 6 6
1 1 1 1 1 1 1 1 1 1 1 2 2 2 2 2 2 2 2 2 2 3 3 3 3 3 4 4 4 5 5 5 5 5 5 5 5 5 5 5 5 5 5
1 0 1 1 1 1 1 1 1 1 1 1 1 1 1 2 2 2 2 2 2 2 2 2 3 3 3 3 4 4 4 4 4 5 5 5 5 5 5 5 5 5 5
0 -0 0 0 0 0 0 0 0 1 1 1 1 1 1 1 1 1 1 1 1 1 2 2 2 2 2 3 3 3 3 4 4 4 4 4 4 4 4 4 4 4 4
-0 -0 -0 -0 -0 -0 -0 -0 0 0 0 0 0 0 0 1 1 1 1 1 1 1 1 1 1 2 2 2 2 2 3 3 3 3 4 4 4 4 4 4 4 4 4
-1 -1 -1 -1 -1 -1 -1 -1 -1 -0 -0 -0 -0 0 0 0 0 0 0 0 1 0 0 1 1 1 1 1 2 2 2 2 3 3 3 3 3 3 3 3 3 3 3
-1 -1 -1 -1 -1 -1 -1 -1 -1 -1 -1 -1 -1 -0 -0 -0 -0 -0 -0 -0 0 0 -0 0 0 0 1 1 1 1 1 2 2 2 2 2 2 3 3 2 3 3 3
-2 -2 -2 -2 -2 -1 -1 -1 -1 -1 -1 -1 -1 -1 -1 -1 -1 -1 -1 -1 -1 -0 -0 -0 -0 -0 0 0 0 1 1 1 1 1 2 2 2 2 2 2 2 2 2
-2 -2 -2 -2 -2 -2 -2 -2 -2 -2 -1 -1 -1 -1 -1 -1 -1 -1 -1 -1 -1 -1 -1 -1 -1 -1 -1 -0 -0 -0 -0 -0 0 1 1 1 1 1 1 1 1 1 1
-2 -2 -2 -2 -2 -2 -2 -2 -2 -2 -2 -2 -2 -2 -2 -2 -2 -2 -2 -1 -1 -1 -1 -1 -1 -1 -1 -1 -1 -1 -1 -1 -1 -0 -0 0 0 0 0 1 1 1 1
-3 -3 -2 -3 -3 -2 -2 -2 -2 -2 -2 -2 -2 -2 -2 -2 -2 -2 -2 -2 -2 -2 -2 -2 -2 -2 -2 -1 -1 -1 -1 -1 -1 -1 -1 -1 -1 -1 -0 -0 0 0 0
-3 -3 -3 -3 -3 -3 -3 -3 -3 -3 -2 -2 -2 -2 -2 -2 -2 -2 -2 -2 -2 -2 -2 -2 -2 -2 -2 -2 -2 -2 -2 -2 -2 -2 -2 -1 -1 -1 -1 -1 -0 -0 -0
-3 -3 -3 -3 -3 -3 -3 -3 -3 -3 -3 -3 -3 -3 -3 -2 -2 -2 -2 -2 -2 -2 -2 -2 -2 -2 -2 -2 -2 -2 -2 -2 -2 -2 -2 -2 -2 -2 -2 -1 -1 -1 -1
-4 -4 -3 -3 -3 -3 -3 -3 -3 -3 -3 -3 -3 -3 -3 -3 -3 -2 -2 -3 -3 -3 -2 -2 -2 -2 -2 -2 -2 -3 -3 -3 -3 -3 -3 -3 -3 -3 -2 -2 -2 -2 -2
-4 -4 -4 -4 -4 -4 -3 -3 -3 -3 -3 -3 -3 -3 -3 -3 -3 -3 -3 -3 -3 -3 -3 -3 -3 -3 -3 -3 -3 -3 -3 -3 -3 -3 -3 -3 -3 -3 -4 -3 -3 -3 -3
Wind_Speed
3 3 3 3 3 3 3 3 3 3 3 3 4 4 3 3 3 3 2 4 4 4 3 3 3 3 3 2 2 3 2 3 3 3 3 4 4 4 4 3 3 3 3
4 3 2 3 3 3 3 3 3 2 2 2 3 4 4 3 3 3 3 3 4 4 3 3 2 2 2 2 2 2 2 2 2 3 3 4 4 4 4 3 3 3 4
4 4 3 2 3 3 3 2 2 2 2 2 3 3 3 4 4 4 3 3 3 3 4 4 3 2 2 2 1 1 1 1 1 1 2 4 4 4 4 4 4 4 4
4 3 3 3 4 3 2 2 2 2 2 2 2 3 2 3 4 4 4 3 3 2 3 4 4 3 2 2 2 1 1 1 1 2 2 3 4 5 5 5 5 5 5
5 4 3 4 4 3 2 2 2 2 2 2 2 2 2 2 3 3 3 3 3 3 2 3 4 5 3 2 2 2 2 2 3 2 3 3 4 5 6 5 6 6 6
5 4 3 4 3 2 2 2 2 2 1 2 2 3 3 2 2 2 2 2 3 3 2 2 2 3 3 3 3 3 3 3 3 3 3 4 4 5 6 6 6 7 7
4 4 3 3 3 2 2 2 2 2 1 2 2 2 2 1 1 1 2 2 2 3 3 3 2 2 2 3 4 3 4 4 4 4 4 5 5 5 6 5 6 7 7
4 4 4 3 3 2 2 2 2 2 2 2 2 2 2 2 1 1 2 2 2 2 3 3 3 2 3 2 3 3 4 5 5 5 5 5 5 6 6 6 7 7 8
4 4 4 3 3 2 2 2 3 3 2 2 2 2 2 2 2 2 1 1 1 1 2 3 3 3 3 3 3 3 4 5 5 5 5 6 5 6 6 6 7 7 7
4 4 4 3 3 2 2 2 2 3 3 2 2 2 3 3 3 2 2 1 2 2 3 2 2 3 3 3 3 4 4 5 5 6 6 7 6 6 6 6 7 6 6
4 4 4 3 3 2 2 3 3 3 2 2 2 2 3 3 3 3 4 3 3 3 3 3 2 3 4 4 4 4 4 4 5 6 6 7 7 7 7 6 5 5 6
3 4 4 4 4 3 3 3 3 3 3 2 2 2 2 3 3 3 4 4 4 3 3 3 3 2 3 4 4 5 5 4 5 5 6 6 7 7 6 6 5 5 5
3 4 4 4 4 4 3 3 3 3 3 3 3 2 3 3 3 4 4 4 5 4 4 3 2 2 3 4 4 5 4 5 5 6 6 6 6 7 5 4 5 5 6
3 4 4 4 4 4 3 3 3 3 3 3 3 4 3 3 3 3 4 4 5 5 4 4 3 3 3 4 4 5 4 4 6 5 5 5 4 6 5 4 4 5 6
4 4 4 4 4 4 4 3 3 3 3 4 4 4 4 3 4 4 4 4 4 5 5 4 3 3 3 4 4 4 4 4 5 5 4 4 4 5 4 4 4 4 5
4 4 4 4 4 4 4 4 4 4 4 4 3 4 4 4 4 3 4 4 5 5 5 4 4 5 4 4 5 5 4 5 4 4 4 4 5 6 4 4 4 4 5
4 4 4 4 4 5 4 4 4 4 4 5 4 5 5 5 4 4 4 4 4 4 6 6 5 5 5 5 4 4 4 4 4 3 4 5 6 5 3 4 4 5 4
4 4 4 4 5 5 5 5 5 5 5 5 5 5 5 4 5 4 4 5 4 5 5 7 5 4 5 5 4 4 4 4 3 2 3 4 4 3 3 4 4 4 4
4 4 4 4 4 5 5 5 5 5 5 5 5 6 6 5 5 5 5 4 4 4 5 5 6 4 4 3 3 3 4 3 3 2 3 3 3 3 3 3 3 3 3
4 4 4 5 5 5 5 5 5 5 5 5 5 6 6 6 6 6 5 4 4 4 4 5 4 4 3 3 2 3 2 2 2 2 3 3 2 2 2 3 3 3 3
4 5 5 5 5 4 4 5 5 5 5 6 6 6 6 6 7 6 5 4 4 4 4 4 4 3 3 2 2 2 2 3 3 2 3 3 3 2 2 2 1 2 3
5 4 5 5 5 4 5 6 5 5 5 5 5 5 5 5 6 7 7 6 5 5 5 4 4 4 4 4 3 2 2 2 3 2 3 3 2 2 3 3 3 3 3
5 5 5 5 5 5 5 5 6 5 5 4 5 5 4 4 5 5 6 6 6 6 6 5 5 5 5 4 3 3 3 3 3 4 3 3 3 3 3 4 3 2 2
5 5 5 5 5 5 6 6 6 5 5 5 4 5 5 5 4 4 4 4 4 4 4 4 4 5 4 4 3 3 3 3 3 2 3 2 3 3 4 4 2 2 3
5 5 5 5 5 6 6 6 6 4 4 5 5 4 5 5 5 4 4 4 4 3 3 4 4 4 3 2 2 2 2 2 2 2 2 2 2 3 4 3 2 3 3
5 5 5 5 5 5 6 6 6 4 4 4 4 4 5 5 5 5 4 4 4 3 2 1 2 2 2 2 2 2 2 2 2 2 1 2 2 2 2 2 3 4 4
Wind_Direction
9 9 9 6 5 4 0 357 358 9 5 3 6 1 355 348 338 334 351 9 351 333 309 296 287 285 269 236 221 204 193 196 195 196 197 200 202 201 200 201 210 220 227
4 358 0 360 358 353 349 346 348 356 356 356 359 0 355 347 347 341 332 357 9 1 351 342 316 294 288 249 230 218 199 192 194 205 209 213 213 204 210 214 222 228 235
0 357 348 349 352 347 343 346 348 352 350 350 354 357 358 357 352 343 335 334 351 13 10 4 356 336 327 303 272 272 210 214 217 214 227 229 226 222 224 225 228 234 242
359 355 351 346 342 339 339 340 331 335 335 336 339 346 352 357 354 352 351 348 351 359 21 18 16 8 359 341 334 318 264 247 262 239 249 249 238 235 235 238 239 243 249
359 357 350 346 335 332 333 331 324 322 322 328 328 331 333 335 349 358 3 3 4 2 9 32 29 11 356 352 334 326 314 288 284 281 256 261 252 244 241 246 249 252 255
358 358 353 342 337 331 333 328 324 326 318 323 324 321 316 320 339 352 352 6 9 5 1 8 21 20 8 356 345 340 320 313 292 291 284 269 270 257 250 252 257 259 259
354 356 350 339 335 324 324 322 318 308 320 316 300 308 299 296 323 342 351 355 15 18 12 6 17 13 13 2 344 329 320 309 308 295 298 273 270 273 266 261 262 261 262
354 350 349 335 332 327 331 329 321 295 299 304 282 280 272 253 236 329 337 349 359 25 21 9 6 4 360 349 349 334 325 314 302 295 307 290 279 279 276 266 264 266 266
351 347 343 340 335 332 322 322 310 296 280 295 304 277 265 261 304 265 299 318 333 342 352 8 359 353 350 346 337 341 327 317 307 308 301 301 287 289 283 277 273 269 272
349 347 337 336 327 323 314 306 303 293 277 276 297 295 291 289 276 278 266 297 316 318 321 330 344 343 341 341 333 336 326 312 302 304 300 301 294 288 285 279 273 277 274
343 344 337 334 321 313 306 303 301 291 276 272 282 286 282 287 276 272 280 284 288 295 303 305 316 329 334 335 327 330 328 318 309 306 309 305 305 297 293 287 287 288 284
324 332 330 324 316 312 302 293 289 282 276 270 274 278 272 269 274 276 280 282 289 297 298 294 297 311 321 319 324 337 330 320 317 312 317 310 313 310 308 306 304 303 297
311 314 318 313 308 304 299 293 280 273 271 267 266 269 270 273 277 276 272 281 285 289 285 284 291 293 314 314 323 329 313 322 324 318 314 309 309 322 319 319 320 315 308
294 302 302 301 299 297 293 286 278 272 267 264 265 266 270 273 272 270 271 277 279 279 274 281 290 286 302 308 327 316 309 323 323 317 316 314 317 324 321 326 324 323 326
292 294 295 294 293 289 284 277 270 269 268 264 262 260 264 271 270 269 269 269 271 278 281 280 284 291 306 302 312 303 301 317 317 318 318 312 310 317 310 317 319 321 324
293 292 292 289 290 287 277 269 269 268 267 268 267 260 260 267 269 268 269 269 268 271 278 290 287 291 296 295 298 296 297 307 300 315 316 309 307 304 296 305 311 314 315
293 291 289 289 288 285 279 271 267 265 262 266 267 261 259 263 266 265 264 264 264 265 269 283 285 283 283 286 291 293 296 298 295 301 299 305 302 288 289 294 303 307 304
295 294 289 286 282 280 278 269 265 264 259 259 260 262 262 263 261 264 264 261 263 264 266 276 283 283 280 278 286 294 299 295 289 290 296 311 304 287 285 287 296 301 303
296 294 289 286 285 283 281 274 265 263 260 258 257 258 261 263 261 263 263 265 268 270 265 266 275 281 282 280 286 292 291 291 301 300 301 311 299 285 285 289 300 305 311
302 295 288 283 281 281 279 278 274 266 261 261 262 261 261 260 262 264 262 260 265 269 266 260 265 279 286 289 284 290 297 312 316 321 330 325 324 307 289 295 304 319 319
299 297 292 288 282 277 276 279 280 274 267 266 264 264 264 264 267 269 267 263 257 256 257 256 262 270 276 286 274 278 287 310 325 322 327 318 315 311 316 315 301 322 315
300 297 292 291 290 286 293 292 294 290 278 271 272 272 270 259 263 265 264 264 257 250 251 252 254 262 273 279 273 264 273 303 313 330 325 323 322 315 319 328 332 324 315
295 293 290 288 287 290 294 292 300 296 285 274 273 274 274 269 267 264 259 258 254 250 250 249 248 256 269 270 266 263 273 290 301 310 312 312 322 319 328 333 332 330 338
290 289 289 288 287 295 299 291 293 284 282 278 274 274 275 274 268 267 263 264 269 264 252 246 243 254 267 270 258 258 273 295 307 305 301 300 323 327 330 319 336 347 354
289 290 289 287 289 296 299 298 289 281 279 281 280 274 272 274 275 263 257 258 265 271 256 242 244 250 263 263 245 243 250 258 290 304 319 303 312 325 326 315 334 356 352
293 297 294 290 289 295 300 298 292 281 281 286 286 279 270 274 273 259 253 249 252 264 257 265 249 243 244 232 220 239 247 248 279 290 304 300 308 327 320 323 330 327 331
Height
1520 1519 1518 1518 1518 1517 1516 1516 1515 1515 1514 1514 1514 1513 1513 1513 1513 1514 1513 1514 1513 1514 1514 1514 1515 1515 1515 1516 1516 1516 1517 1518 1518 1519 1519 1520 1520 1521 1521 1522 1522 1522 1523
1517 1517 1516 1516 1515 1515 1514 1514 1514 1513 1512 1512 1512 1511 1511 1511 1511 1511 1511 1511 1511 1511 1511 1511 1512 1512 1512 1513 1513 1513 1514 1514 1515 1516 1516 1517 1518 1518 1519 1519 1519 1520 1520
1515 1515 1514 1514 1513 1512 1512 1512 1511 1511 1510 1510 1509 1509 1508 1508 1508 1508 1508 1508 1508 1508 1508 1509 1509 1509 1509 1509 1510 1511 1511 1511 1512 1512 1513 1514 1514 1515 1516 1516 1516 1517 1517
1513 1512 1512 1511 1511 1510 1510 1509 1509 1508 1508 1508 1507 1506 1506 1505 1505 1505 1505 1505 1505 1505 1506 1506 1506 1506 1506 1506 1507 1507 1508 1508 1509 1509 1510 1510 1511 1512 1512 1513 1513 1514 1514
1510 1510 1509 1508 1508 1507 1507 1507 1506 1506 1505 1505 1505 1504 1503 1503 1503 1503 1503 1502 1502 1503 1503 1503 1503 1503 1503 1503 1504 1504 1504 1505 1505 1506 1506 1507 1507 1508 1508 1509 1510 1510 1510
1508 1507 1506 1506 1505 1505 1504 1504 1503 1503 1503 1503 1502 1501 1501 1500 1500 1500 1500 1500 1500 1500 1500 1500 1500 1500 1500 1500 1500 1500 1501 1501 1501 1502 1503 1503 1504 1504 1504 1505 1506 1506 1507
1505 1504 1504 1503 1503 1502 1501 1501 1501 1500 1500 1500 1500 1499 1498 1498 1497 1498 1498 1497 1497 1497 1497 1497 1497 1497 1497 1497 1497 1497 1497 1497 1498 1498 1499 1500 1500 1500 1501 1501 1501 1502 1503
1502 1501 1501 1500 1499 1499 1499 1498 1498 1498 1497 1498 1498 1497 1497 1497 1495 1495 1495 1494 1494 1494 1494 1494 1494 1493 1493 1493 1493 1493 1493 1493 1494 1495 1495 1496 1496 1496 1497 1497 1497 1498 1499
1500 1499 1498 1497 1496 1496 1496 1495 1495 1495 1495 1496 1496 1497 1496 1495 1494 1493 1492 1492 1492 1491 1491 1491 1490 1490 1490 1490 1490 1490 1490 1490 1490 1490 1491 1491 1492 1492 1493 1493 1493 1494 1494
1497 1496 1495 1495 1494 1494 1493 1493 1493 1493 1493 1493 1493 1493 1494 1493 1493 1491 1490 1490 1489 1489 1488 1488 1487 1487 1487 1487 1486 1486 1486 1486 1487 1486 1487 1487 1487 1488 1488 1489 1489 1490 1490
1495 1494 1493 1492 1492 1491 1491 1490 1490 1490 1490 1490 1490 1490 1490 1490 1490 1490 1488 1487 1486 1486 1485 1485 1484 1483 1483 1483 1482 1482 1482 1482 1482 1483 1482 1483 1483 1484 1484 1484 1484 1485 1485
1492 1491 1490 1490 1489 1489 1488 1488 1488 1488 1488 1488 1488 1488 1488 1488 1488 1487 1486 1485 1484 1483 1482 1482 1481 1480 1480 1479 1479 1479 1478 1478 1478 1479 1478 1479 1479 1479 1479 1480 1480 1480 1481
1489 1488 1488 1487 1487 1486 1486 1485 1485 1485 1485 1485 1485 1485 1485 1485 1485 1485 1484 1482 1481 1480 1479 1479 1478 1478 1477 1476 1476 1476 1475 1475 1474 1474 1474 1475 1475 1474 1475 1475 1476 1476 1477
1486 1485 1485 1484 1484 1483 1483 1483 1482 1482 1482 1482 1482 1482 1482 1482 1482 1481 1481 1481 1479 1478 1477 1476 1475 1475 1474 1473 1472 1472 1472 1471 1471 1470 1470 1470 1470 1470 1471 1471 1472 1472 1473
1483 1482 1482 1481 1481 1481 1480 1480 1480 1479 1479 1479 1479 1479 1479 1478 1478 1478 1478 1478 1478 1475 1474 1472 1472 1471 1471 1470 1469 1469 1468 1468 1467 1467 1466 1466 1466 1466 1467 1467 1468 1468 1468
1480 1480 1479 1479 1478 1478 1477 1477 1477 1476 1476 1476 1476 1476 1475 1475 1475 1474 1474 1474 1474 1473 1471 1470 1468 1468 1467 1466 1466 1465 1465 1464 1464 1463 1463 1463 1462 1462 1463 1463 1463 1464 1464
1477 1477 1476 1476 1475 1475 1474 1474 1474 1473 1473 1473 1472 1472 1472 1472 1471 1471 1471 1470 1470 1469 1468 1466 1465 1464 1463 1462 1462 1462 1461 1460 1460 1460 1459 1459 1458 1458 1458 1459 1459 1459 1459
1474 1474 1473 1473 1473 1472 1471 1471 1470 1470 1469 1469 1469 1468 1468 1468 1467 1467 1467 1466 1466 1465 1464 1463 1461 1460 1460 1459 1458 1458 1457 1457 1456 1456 1455 1455 1454 1454 1455 1455 1455 1455 1455
1472 1471 1471 1470 1469 1469 1468 1468 1467 1467 1466 1466 1465 1465 1464 1464 1463 1463 1463 1462 1461 1461 1460 1459 1458 1457 1456 1456 1455 1454 1454 1453 1453 1452 1452 1451 1451 1451 1452 1452 1451 1451 1451
1469 1468 1468 1467 1466 1465 1465 1464 1464 1463 1463 1462 1461 1461 1461 1460 1460 1459 1459 1458 1458 1457 1457 1456 1455 1454 1453 1452 1452 1452 1451 1451 1450 1449 1449 1449 1448 1448 1448 1448 1448 1448 1447
1466 1465 1464 1464 1463 1462 1462 1461 1461 1460 1459 1458 1458 1457 1457 1456 1456 1455 1455 1455 1454 1454 1453 1453 1452 1451 1450 1450 1449 1449 1448 1448 1447 1447 1446 1446 1446 1445 1445 1445 1444 1444 1444
1464 1463 1462 1461 1460 1459 1459 1458 1458 1457 1456 1455 1454 1453 1453 1452 1452 1451 1451 1451 1451 1451 1450 1449 1449 1448 1448 1447 1447 1447 1446 1445 1445 1446 1445 1444 1444 1443 1442 1442 1441 1441 1441
1461 1460 1459 1458 1457 1456 1456 1455 1455 1454 1453 1452 1451 1450 1449 1449 1449 1448 1448 1448 1447 1447 1447 1446 1445 1445 1445 1445 1445 1444 1444 1444 1443 1443 1443 1441 1441 1441 1440 1440 1439 1439 1438
1458 1457 1456 1455 1454 1453 1453 1452 1452 1451 1450 1449 1448 1447 1447 1446 1446 1445 1445 1444 1444 1443 1443 1443 1443 1443 1443 1443 1443 1443 1442 1442 1442 1442 1441 1440 1439 1439 1438 1437 1437 1436 1436
1455 1454 1453 1452 1451 1450 1450 1449 1449 1448 1447 1446 1445 1445 1444 1443 1443 1442 1442 1441 1440 1440 1440 1440 1440 1440 1440 1440 1440 1440 1440 1440 1439 1439 1439 1438 1437 1436 1435 1435 1435 1434 1433
1453 1452 1450 1449 1448 1448 1447 1446 1446 1445 1444 1443 1442 1441 1441 1440 1440 1439 1439 1438 1437 1438 1438 1438 1438 1438 1438 1438 1438 1438 1438 1438 1437 1437 1437 1437 1436 1435 1434 1433 1433 1432 1431